30.06.2024;15:00;2
30.06.2024;14:00;2
30.06.2024;13:00;2
30.06.2024;12:00;3
30.06.2024;11:00;4
30.06.2024;10:00;7
30.06.2024;09:00;7
30.06.2024;08:00;6
30.06.2024;07:00;6
30.06.2024;06:00;5
30.06.2024;05:00;6
30.06.2024;04:00;16
30.06.2024;03:00;21
30.06.2024;02:00;23
30.06.2024;01:00;21
30.06.2024;00:00;18
29.06.2024;23:00;17
29.06.2024;22:00;17
29.06.2024;21:00;19
29.06.2024;20:00;19
29.06.2024;19:00;18
29.06.2024;18:00;17
29.06.2024;17:00;17
29.06.2024;16:00;16
29.06.2024;15:00;17
29.06.2024;14:00;17
29.06.2024;13:00;16
29.06.2024;12:00;13
29.06.2024;11:00;12
29.06.2024;10:00;11
29.06.2024;09:00;10
29.06.2024;08:00;10
29.06.2024;07:00;11
29.06.2024;06:00;10
29.06.2024;05:00;9
29.06.2024;04:00;8
29.06.2024;03:00;7
29.06.2024;02:00;9
29.06.2024;01:00;10
29.06.2024;00:00;9
28.06.2024;23:00;8
28.06.2024;22:00;7
28.06.2024;21:00;5
28.06.2024;20:00;4
28.06.2024;19:00;6
28.06.2024;18:00;12
28.06.2024;17:00;17
28.06.2024;16:00;13
